Temp
72 75 78 78 78 78 78 78 78 78 78 78 78 78 78 77 77 76 76 76 76 77 77 77 77 76 76 76 77 76 76 75 75 74 74 75 77 78 78 77 76 76 77
74 76 77 78 78 78 78 78 77 77 77 77 77 77 77 76 76 76 76 76 76 76 76 76 76 76 76 75 75 75 75 74 74 73 73 73 74 78 77 76 76 76 77
74 77 77 78 78 78 78 77 77 76 77 76 76 76 76 76 76 76 76 76 75 75 75 75 75 75 74 74 74 74 74 74 74 73 73 71 74 77 77 76 76 77 77
76 77 76 77 77 77 77 77 77 76 76 76 76 76 76 76 75 75 75 75 75 74 74 74 74 74 74 74 74 74 74 73 73 72 69 75 76 78 78 77 78 77 77
75 76 76 77 77 77 77 76 76 76 75 75 75 75 75 75 74 74 74 73 73 73 73 73 73 73 73 73 73 74 74 73 72 70 66 68 70 77 77 77 76 76 76
74 75 76 76 76 76 76 76 75 75 75 75 75 74 74 74 74 73 73 72 72 73 73 73 72 72 72 73 73 74 74 73 70 65 66 70 70 77 76 76 75 75 75
72 74 75 76 76 76 76 75 75 75 75 74 74 74 74 74 73 73 72 72 72 72 72 72 72 72 72 72 73 74 72 71 70 68 66 68 70 76 76 75 75 75 75
72 74 75 74 75 75 75 74 74 74 74 74 74 73 73 73 72 72 72 72 72 72 72 72 72 72 72 72 73 73 71 69 70 68 66 65 74 76 76 75 75 75 75
73 72 72 73 73 73 73 73 74 74 73 73 73 72 72 71 71 71 71 71 71 71 71 71 71 71 72 72 72 71 69 68 63 64 69 66 73 75 74 75 74 74 74
71 71 71 71 71 71 70 72 72 72 71 71 70 69 68 68 69 69 69 69 70 70 70 70 71 71 72 72 72 70 68 66 61 63 65 67 74 75 74 73 73 73 73
69 69 70 69 70 67 66 68 69 69 69 68 67 67 65 60 60 61 65 67 69 69 70 70 70 70 69 68 70 69 66 61 60 60 62 71 73 74 73 72 72 72 72
67 68 70 70 68 67 68 60 60 63 59 59 59 59 60 58 57 60 62 66 69 69 69 70 70 69 67 60 61 65 60 58 58 59 64 71 72 72 72 71 71 71 72
68 69 70 69 67 65 63 59 56 56 56 57 58 58 59 59 57 55 54 55 55 61 58 61 60 60 59 59 60 59 58 57 55 56 64 69 71 72 71 71 71 70 70
66 67 70 68 66 64 61 60 58 57 57 56 58 59 57 56 55 54 54 54 55 55 56 56 58 59 60 61 60 59 58 55 54 54 59 66 68 69 69 69 69 69 69
64 64 67 68 65 64 62 58 58 58 58 58 58 60 58 57 56 57 56 56 55 56 56 56 57 59 60 60 60 60 58 55 54 54 54 63 66 67 68 69 69 69 69
63 63 65 66 65 64 60 59 58 58 58 58 57 58 60 57 57 57 55 56 56 56 56 56 57 57 57 59 59 59 58 56 54 54 54 56 64 65 67 67 68 68 68
62 62 64 65 65 63 61 59 58 58 59 57 58 59 60 59 57 56 55 54 54 55 57 56 56 56 57 59 57 58 58 56 55 54 54 54 56 62 64 66 66 66 67
60 60 60 64 63 63 61 59 59 58 57 56 57 57 60 60 58 55 55 55 55 55 55 55 54 54 54 54 54 56 57 57 56 55 55 54 53 55 60 63 63 64 65
61 59 58 59 62 65 64 60 59 59 57 57 56 57 59 60 59 55 54 54 55 54 54 55 53 53 52 52 55 54 54 55 56 60 54 54 53 53 51 60 61 61 62
59 58 58 57 57 60 62 61 59 57 57 56 56 57 59 59 58 55 55 55 55 54 53 53 53 53 52 51 59 57 53 54 54 54 54 57 55 54 52 52 51 52 60
57 56 57 57 57 58 58 57 57 56 56 56 57 59 58 58 58 56 54 55 55 54 53 54 53 52 51 50 50 50 51 52 53 54 53 53 54 55 53 52 50 49 51
55 56 56 56 57 58 58 57 59 58 57 58 59 59 60 59 59 57 55 55 55 54 54 53 52 51 50 50 48 46 46 49 51 53 52 54 52 53 53 54 53 52 49
54 55 56 57 56 58 61 60 59 58 56 56 56 57 58 59 58 58 57 55 54 54 52 52 52 51 49 49 50 48 44 44 45 49 51 51 52 50 51 53 53 53 51
54 55 56 56 56 57 59 59 58 56 53 54 54 56 56 58 58 58 58 57 55 54 53 53 54 51 49 47 49 53 48 47 43 44 48 49 51 53 50 50 51 52 51
55 55 56 56 56 55 56 57 56 57 56 55 55 56 56 56 57 58 58 58 55 54 53 53 51 50 49 48 47 47 47 46 45 43 42 45 48 50 50 49 49 49 51
54 55 55 55 55 54 55 54 55 54 55 54 54 54 54 55 56 57 58 56 55 54 53 52 51 50 49 48 48 48 47 46 45 45 41 41 42 46 48 49 48 48 47
MSLP
1012.70 1012.95 1013.51 1013.94 1014.32 1014.61 1014.94 1015.23 1015.46 1015.75 1015.98 1016.14 1016.26 1016.45 1016.62 1016.68 1016.89 1017.08 1017.12 1017.18 1017.23 1017.27 1017.27 1017.31 1017.36 1017.42 1017.42 1017.39 1017.31 1017.38 1017.38 1017.45 1017.49 1017.51 1017.51 1017.50 1017.33 1017.13 1017.25 1017.35 1017.37 1017.39 1017.36
1011.94 1012.60 1013.28 1013.78 1014.20 1014.58 1014.93 1015.20 1015.49 1015.82 1016.06 1016.22 1016.44 1016.66 1016.90 1017.09 1017.20 1017.27 1017.33 1017.39 1017.45 1017.51 1017.57 1017.61 1017.64 1017.66 1017.65 1017.66 1017.66 1017.64 1017.65 1017.66 1017.68 1017.69 1017.70 1017.71 1017.54 1017.29 1017.31 1017.46 1017.45 1017.49 1017.47
1011.99 1012.52 1013.19 1013.67 1014.12 1014.54 1014.91 1015.26 1015.64 1015.91 1016.13 1016.46 1016.72 1017.03 1017.19 1017.29 1017.36 1017.44 1017.49 1017.58 1017.64 1017.71 1017.81 1017.87 1017.89 1017.93 1017.94 1017.92 1017.90 1017.87 1017.85 1017.83 1017.72 1017.76 1017.65 1017.61 1017.57 1017.42 1017.47 1017.58 1017.60 1017.60 1017.64
1011.93 1012.54 1013.17 1013.71 1014.07 1014.51 1015.06 1015.42 1015.78 1016.08 1016.48 1016.73 1016.93 1017.15 1017.33 1017.47 1017.52 1017.61 1017.70 1017.77 1017.89 1017.93 1017.98 1018.05 1018.12 1018.12 1018.07 1018.06 1018.01 1017.93 1017.86 1017.84 1017.79 1017.84 1017.78 1017.59 1017.58 1017.53 1017.62 1017.60 1017.56 1017.76 1017.78
1012.08 1012.63 1013.18 1013.67 1014.14 1014.54 1015.09 1015.62 1015.97 1016.35 1016.67 1016.94 1017.12 1017.26 1017.47 1017.64 1017.79 1017.85 1017.90 1018.07 1018.18 1018.20 1018.18 1018.25 1018.28 1018.32 1018.24 1018.14 1018.09 1018.00 1017.92 1017.78 1017.75 1018.01 1018.00 1017.87 1017.84 1017.87 1017.90 1017.89 1017.91 1017.94 1017.95
1012.23 1012.82 1013.29 1013.64 1014.17 1014.69 1015.20 1015.72 1016.19 1016.52 1016.82 1017.11 1017.29 1017.50 1017.66 1017.81 1017.97 1018.13 1018.20 1018.33 1018.40 1018.39 1018.43 1018.52 1018.52 1018.52 1018.47 1018.34 1018.27 1018.25 1018.00 1017.69 1018.01 1018.25 1018.28 1018.19 1018.14 1018.12 1018.17 1018.21 1018.22 1018.29 1018.22
1012.44 1012.96 1013.44 1013.75 1014.24 1014.80 1015.28 1015.83 1016.29 1016.62 1016.97 1017.26 1017.44 1017.61 1017.84 1018.01 1018.18 1018.33 1018.42 1018.52 1018.59 1018.63 1018.63 1018.68 1018.72 1018.71 1018.70 1018.54 1018.47 1018.40 1018.31 1018.28 1018.35 1018.56 1018.70 1018.58 1018.48 1018.42 1018.40 1018.51 1018.57 1018.70 1018.66
1012.31 1012.98 1013.52 1013.94 1014.39 1014.92 1015.48 1016.02 1016.38 1016.75 1017.08 1017.41 1017.62 1017.80 1018.01 1018.20 1018.39 1018.49 1018.58 1018.70 1018.78 1018.82 1018.83 1018.86 1018.87 1018.88 1018.89 1018.80 1018.69 1018.69 1018.61 1018.79 1018.73 1018.98 1019.17 1019.12 1018.76 1018.62 1018.74 1018.97 1018.93 1018.94 1019.01
1012.23 1013.04 1013.72 1014.22 1014.66 1015.09 1015.69 1016.18 1016.58 1016.91 1017.25 1017.57 1017.84 1018.12 1018.32 1018.45 1018.59 1018.78 1018.72 1018.92 1019.02 1019.09 1019.09 1019.05 1019.05 1019.08 1019.02 1018.97 1018.93 1019.03 1019.03 1019.13 1019.25 1019.52 1019.36 1019.40 1019.09 1019.22 1019.28 1019.26 1019.32 1019.34 1019.47
1012.55 1013.25 1013.92 1014.51 1015.01 1015.40 1015.97 1016.37 1016.85 1017.25 1017.60 1017.89 1018.18 1018.54 1018.79 1018.93 1018.94 1019.20 1019.05 1019.21 1019.36 1019.37 1019.35 1019.25 1019.23 1019.28 1019.28 1019.07 1018.99 1019.26 1019.40 1019.56 1019.85 1019.86 1019.86 1019.70 1019.50 1019.47 1019.67 1019.72 1019.75 1019.82 1019.94
1012.71 1013.45 1014.15 1014.81 1015.28 1015.72 1016.32 1016.78 1017.21 1017.66 1017.97 1018.25 1018.42 1018.68 1019.05 1019.46 1019.50 1019.47 1019.52 1019.50 1019.52 1019.52 1019.55 1019.58 1019.51 1019.56 1019.61 1019.63 1019.53 1019.70 1019.87 1020.25 1020.38 1020.49 1020.31 1019.95 1019.90 1020.04 1020.20 1020.21 1020.22 1020.29 1020.33
1012.62 1013.39 1014.12 1014.80 1015.36 1015.99 1016.54 1017.20 1017.67 1018.02 1018.34 1018.52 1018.75 1018.91 1019.19 1019.57 1019.85 1019.53 1019.83 1019.71 1019.65 1019.63 1019.71 1019.73 1019.79 1019.87 1019.95 1020.21 1020.20 1020.24 1020.52 1020.73 1020.94 1020.91 1020.65 1020.38 1020.34 1020.47 1020.62 1020.69 1020.63 1020.62 1020.60
1012.48 1013.20 1013.87 1014.73 1015.38 1016.07 1016.74 1017.45 1017.94 1018.28 1018.59 1018.74 1019.00 1019.06 1019.17 1019.51 1020.00 1020.07 1020.17 1020.14 1020.06 1019.97 1020.12 1019.94 1020.09 1020.18 1020.35 1020.53 1020.52 1020.84 1021.03 1021.24 1021.54 1021.61 1021.39 1021.05 1020.95 1020.94 1020.97 1021.02 1021.04 1021.03 1020.99
1012.68 1013.40 1013.81 1014.58 1015.35 1015.99 1016.71 1017.34 1017.85 1018.27 1018.62 1018.87 1019.01 1019.12 1019.20 1019.76 1019.98 1020.25 1020.39 1020.44 1020.18 1020.29 1020.35 1020.25 1020.27 1020.26 1020.44 1020.60 1020.78 1021.10 1021.42 1021.73 1021.95 1022.00 1021.83 1021.68 1021.59 1021.50 1021.53 1021.51 1021.43 1021.41 1021.38
1012.78 1013.63 1013.81 1014.46 1015.20 1015.71 1016.39 1017.03 1017.60 1017.99 1018.35 1018.59 1018.79 1018.98 1019.19 1019.57 1019.99 1020.09 1020.32 1020.48 1020.33 1020.13 1020.34 1020.49 1020.59 1020.43 1020.67 1020.85 1021.03 1021.18 1021.62 1021.94 1022.15 1022.31 1022.36 1022.19 1022.09 1021.98 1021.89 1021.78 1021.70 1021.63 1021.58
1012.91 1014.02 1014.10 1014.42 1014.70 1015.25 1016.09 1016.63 1017.18 1017.50 1017.88 1018.33 1018.78 1018.92 1019.10 1019.41 1019.74 1020.10 1020.43 1020.57 1020.51 1020.38 1020.44 1020.54 1020.76 1020.81 1020.96 1021.07 1021.27 1021.41 1021.66 1021.97 1022.28 1022.51 1022.58 1022.60 1022.54 1022.43 1022.30 1022.22 1022.13 1022.03 1021.90
1013.37 1013.97 1014.26 1014.25 1014.32 1014.99 1015.76 1016.38 1017.01 1017.44 1017.74 1018.10 1018.51 1018.73 1018.94 1019.34 1019.76 1019.98 1020.56 1020.80 1020.78 1020.63 1020.55 1020.63 1020.90 1021.01 1021.18 1021.26 1021.61 1021.62 1021.71 1021.99 1022.31 1022.54 1022.74 1022.84 1022.88 1022.81 1022.71 1022.58 1022.50 1022.41 1022.28
1013.67 1014.12 1014.91 1015.10 1015.25 1015.65 1015.74 1016.38 1017.04 1017.37 1017.95 1018.23 1018.39 1018.68 1018.90 1019.19 1019.66 1020.07 1020.53 1020.87 1020.84 1020.83 1020.84 1020.96 1021.15 1021.50 1021.66 1021.73 1021.84 1021.88 1021.84 1021.92 1022.21 1022.49 1022.65 1022.87 1023.05 1023.12 1023.05 1023.00 1022.99 1022.91 1022.76
1013.95 1014.72 1015.40 1016.06 1015.13 1015.63 1015.95 1016.73 1017.24 1017.66 1017.95 1018.37 1018.47 1018.67 1019.02 1019.08 1019.48 1019.92 1020.47 1020.82 1020.92 1021.08 1021.18 1021.15 1021.53 1021.76 1022.08 1022.12 1022.10 1022.16 1022.10 1022.14 1022.16 1022.18 1022.67 1022.78 1022.94 1023.14 1023.31 1023.21 1023.28 1023.27 1023.14
1014.27 1014.85 1015.90 1015.78 1015.89 1015.27 1016.03 1016.77 1017.55 1017.96 1018.34 1018.48 1018.66 1018.65 1018.95 1019.04 1019.47 1019.98 1020.42 1020.82 1021.06 1021.33 1021.44 1021.52 1021.65 1021.94 1022.13 1022.25 1022.22 1022.22 1022.27 1022.24 1022.23 1022.30 1022.47 1022.64 1022.68 1022.92 1023.15 1023.33 1023.37 1023.48 1023.32
1014.77 1015.07 1015.63 1016.22 1016.47 1016.75 1016.74 1017.22 1017.83 1018.28 1018.49 1018.84 1018.99 1018.84 1019.03 1019.14 1019.30 1019.86 1020.48 1020.84 1021.14 1021.40 1021.52 1021.67 1021.87 1022.11 1022.32 1022.27 1022.55 1022.66 1022.58 1022.39 1022.44 1022.36 1022.33 1022.51 1022.69 1022.76 1022.90 1023.09 1023.29 1023.34 1023.33
1014.93 1015.36 1015.98 1016.49 1017.10 1017.45 1017.72 1016.91 1017.72 1018.41 1018.79 1018.42 1018.48 1019.02 1019.11 1019.54 1019.40 1019.77 1020.36 1020.78 1021.02 1021.35 1021.63 1021.80 1021.95 1022.30 1022.42 1022.38 1022.78 1023.13 1023.27 1023.11 1022.61 1022.50 1022.47 1022.60 1022.59 1022.70 1022.78 1022.77 1022.96 1023.16 1023.26
1015.04 1015.41 1015.93 1016.25 1017.06 1016.57 1017.02 1018.34 1018.38 1018.68 1019.09 1018.86 1018.64 1018.93 1019.36 1019.64 1019.42 1019.76 1020.30 1020.75 1021.01 1021.30 1021.74 1021.89 1022.02 1022.22 1022.52 1022.58 1022.59 1022.98 1023.41 1023.65 1023.34 1022.82 1022.81 1022.65 1022.70 1022.74 1022.60 1022.63 1022.66 1022.72 1022.86
1014.65 1015.31 1015.82 1016.03 1016.62 1016.33 1016.91 1018.12 1018.30 1018.99 1019.20 1019.16 1019.11 1018.88 1019.51 1019.48 1019.57 1019.94 1020.36 1020.63 1020.80 1021.20 1021.66 1021.79 1021.88 1022.19 1022.51 1022.75 1022.78 1022.78 1022.95 1023.34 1023.75 1023.63 1023.27 1022.95 1022.85 1022.75 1022.70 1022.66 1022.64 1022.66 1022.71
1014.50 1014.94 1015.59 1016.03 1016.61 1017.14 1017.06 1017.15 1018.53 1019.00 1019.10 1019.73 1019.39 1019.15 1019.20 1019.52 1019.78 1020.07 1020.30 1020.61 1020.82 1021.07 1021.45 1021.75 1022.02 1022.09 1022.37 1022.72 1022.98 1023.06 1023.14 1023.25 1023.53 1024.08 1023.96 1023.51 1023.15 1022.85 1022.60 1022.66 1022.65 1022.62 1022.54
1014.34 1014.83 1015.40 1016.00 1016.25 1016.89 1017.02 1016.77 1018.27 1017.79 1018.95 1019.50 1019.81 1019.67 1019.74 1019.71 1019.94 1020.02 1020.32 1020.71 1020.86 1021.06 1021.46 1021.63 1021.83 1022.08 1022.36 1022.53 1022.78 1022.98 1023.11 1023.19 1023.52 1023.88 1024.09 1024.12 1023.72 1023.19 1022.77 1022.57 1022.59 1022.51 1022.58
Wind_Speed
14 17 20 20 19 18 17 16 16 14 13 13 13 16 14 15 14 13 13 12 12 12 12 12 11 11 11 11 10 10 10 10 9 8 6 6 7 12 11 11 10 6 10
19 19 22 20 20 18 17 17 15 12 11 16 16 14 13 12 12 12 12 12 12 12 12 12 11 11 10 10 9 9 8 7 6 6 6 4 4 10 10 8 8 7 9
18 18 18 20 18 17 16 16 16 17 16 15 16 13 13 12 12 13 13 13 13 13 12 12 12 11 11 10 9 7 6 5 6 7 7 2 3 11 10 6 3 5 7
18 16 16 19 18 20 20 20 18 17 15 15 14 13 13 12 13 13 13 13 13 12 12 12 12 12 11 10 10 9 8 7 6 8 5 6 5 13 11 9 5 7 7
17 15 15 19 20 21 19 18 17 16 15 15 14 14 13 13 12 13 14 13 12 12 12 12 12 11 11 11 10 10 11 10 8 7 5 6 6 10 11 12 11 11 11
15 14 17 20 21 20 19 18 17 16 15 15 15 14 14 13 13 13 13 13 12 12 12 12 12 12 10 10 10 13 14 11 14 7 7 8 7 11 12 13 13 13 15
16 14 14 22 22 20 19 19 17 17 16 15 15 15 14 14 13 13 13 12 12 12 13 12 12 12 10 10 12 15 18 15 10 10 9 7 7 12 14 15 16 16 16
17 14 14 20 21 19 19 18 18 17 16 15 15 15 14 14 13 13 13 12 12 12 12 12 12 11 10 10 12 16 17 13 10 10 8 6 13 16 16 15 15 16 15
17 13 12 13 16 19 18 16 16 17 16 15 15 14 14 13 13 12 13 12 12 12 12 12 11 10 9 9 12 17 17 15 10 5 7 4 15 14 15 14 15 15 16
16 14 12 12 11 12 10 15 15 15 14 15 15 14 12 12 13 11 12 11 11 11 11 11 10 9 8 10 14 18 16 17 9 8 6 4 11 14 14 15 15 15 13
14 14 12 10 10 10 9 10 14 15 13 13 12 12 9 4 6 7 8 9 10 10 10 9 8 7 7 11 11 13 13 5 7 5 3 12 15 16 16 16 15 15 14
16 15 13 12 12 10 8 7 7 6 4 5 5 6 4 6 4 6 5 7 9 8 8 8 5 3 5 4 4 9 5 6 5 4 5 13 14 14 14 13 13 11 11
16 12 15 14 11 10 8 5 3 3 3 3 5 5 6 5 3 2 2 2 2 3 1 3 3 3 3 2 5 5 5 6 4 3 7 14 13 11 11 12 10 11 11
14 10 15 15 12 10 6 5 5 4 3 2 3 6 5 3 3 3 2 1 3 2 3 3 2 5 6 6 6 7 6 5 3 3 6 11 12 12 11 10 10 11 11
12 8 15 15 11 11 10 5 5 5 4 4 4 4 5 5 4 3 3 2 2 3 3 4 3 4 5 6 5 6 7 6 6 3 3 11 11 12 11 11 11 11 11
11 9 11 12 12 11 7 7 5 5 6 5 4 4 6 5 5 5 3 3 2 3 3 4 3 4 3 4 5 5 5 6 6 5 3 4 10 10 10 10 10 10 10
7 6 8 13 12 10 9 7 5 5 5 5 5 5 7 5 5 6 4 3 2 2 4 4 4 3 4 3 4 5 5 6 5 6 4 3 5 7 8 9 9 9 9
11 7 4 4 7 7 7 6 5 5 5 4 5 5 6 7 7 6 5 3 1 3 3 3 3 3 3 3 1 2 3 4 5 6 5 4 3 2 5 7 7 8 8
11 10 6 8 7 10 7 5 5 6 5 4 4 5 5 6 7 6 4 3 3 3 3 2 3 3 2 2 1 2 2 3 5 4 5 6 6 4 2 4 5 5 6
10 10 8 8 6 4 6 4 3 4 3 4 4 5 6 5 6 6 4 3 3 2 2 2 3 2 2 1 2 1 1 2 2 3 5 3 4 6 5 4 2 1 2
7 11 12 12 5 1 4 3 3 2 3 3 3 6 6 5 6 7 4 3 2 3 3 2 2 2 1 1 2 3 2 2 3 3 3 4 5 5 5 5 3 2 2
9 8 10 9 4 3 1 4 2 1 1 3 4 4 5 5 6 6 6 4 3 3 2 2 2 1 1 1 3 2 2 4 3 3 2 3 5 4 4 5 4 5 4
11 11 11 10 8 6 4 2 2 3 2 2 3 3 3 6 6 5 5 4 4 3 2 2 2 3 2 1 2 3 2 3 2 2 2 2 3 3 4 4 5 5 5
11 11 11 11 5 5 6 4 6 3 2 1 2 3 4 5 5 5 5 5 4 3 3 2 3 2 2 1 1 1 2 3 2 2 3 3 2 3 2 2 3 4 5
11 12 11 12 9 6 9 7 2 1 1 1 1 4 3 3 4 4 3 4 4 3 2 3 2 3 2 2 2 0 0 1 1 2 3 3 2 3 3 3 3 3 3
10 12 12 12 11 9 8 11 9 10 4 2 1 2 2 3 3 3 3 3 3 3 3 3 3 4 3 2 2 2 3 2 2 2 2 3 3 4 2 2 4 3 2
Wind_Direction
154 153 151 146 143 138 136 133 131 129 128 126 124 105 99 87 80 82 80 75 71 69 68 66 64 61 56 49 51 63 61 45 40 39 41 43 51 61 68 61 69 62 59
144 148 149 146 144 142 139 135 132 135 134 113 104 92 95 103 99 93 87 83 78 74 71 70 70 68 68 64 57 46 42 29 18 14 7 360 344 72 72 65 60 58 56
140 144 144 148 146 144 136 133 130 115 106 102 103 110 107 105 100 97 92 88 83 80 74 71 71 71 70 69 65 57 42 18 353 356 335 244 141 67 69 70 73 59 50
138 142 143 146 140 130 124 120 120 114 118 113 113 111 107 103 99 94 91 88 83 81 78 73 68 67 67 65 62 60 54 40 12 9 18 57 45 55 47 50 52 55 35
138 140 144 142 133 130 127 123 123 124 120 118 116 112 108 105 99 97 93 87 84 81 80 73 69 64 63 63 57 47 32 13 351 35 51 58 57 57 56 63 66 60 57
135 139 144 138 132 127 127 130 128 126 123 121 118 115 112 108 104 98 95 91 86 84 80 74 70 67 62 60 51 41 25 49 70 65 48 49 57 64 65 66 65 62 62
133 140 139 135 132 132 133 131 131 128 127 125 123 117 113 109 104 101 97 93 90 88 83 78 74 71 64 58 50 42 45 65 79 67 46 39 56 73 69 64 71 66 60
136 139 141 133 132 132 130 136 133 131 129 126 123 119 115 110 106 104 98 95 92 89 86 81 78 76 70 58 48 43 53 62 64 62 47 26 57 63 70 68 65 62 58
131 130 132 132 131 129 134 134 133 131 129 126 120 116 113 110 105 103 98 96 93 91 88 85 81 75 72 60 45 54 71 70 63 46 46 19 56 63 61 71 67 63 58
131 132 128 125 127 122 128 130 127 126 126 125 122 118 108 102 103 100 91 98 99 98 96 94 88 77 65 51 41 72 75 63 56 42 23 12 58 58 58 66 67 62 53
134 132 131 125 129 110 108 113 117 120 127 133 133 134 109 97 102 100 102 104 105 104 103 99 84 58 31 22 35 79 85 80 66 44 360 78 79 76 69 66 68 65 58
138 139 138 136 126 123 120 109 111 120 132 145 140 133 117 122 150 118 129 124 108 104 108 102 91 32 350 5 36 69 78 75 66 41 31 58 68 68 58 56 48 46 42
139 147 142 138 131 132 131 128 130 135 154 153 151 161 147 118 108 84 105 70 62 96 23 52 68 78 78 126 61 74 83 75 69 51 44 56 55 55 53 49 45 40 44
146 144 141 139 137 139 135 147 153 149 167 162 166 155 122 132 140 152 138 153 134 154 110 110 68 66 74 81 85 79 90 91 79 59 44 57 63 62 62 63 60 56 54
137 134 143 141 143 147 148 150 151 152 144 140 123 133 138 129 135 122 117 79 87 99 90 83 99 92 81 83 89 96 100 110 102 88 63 66 70 69 66 66 63 63 62
137 145 144 141 143 143 141 146 144 136 139 128 111 127 127 127 127 115 104 92 55 79 92 98 103 99 100 106 95 100 107 114 114 109 101 84 82 72 69 66 62 57 54
171 140 166 152 140 137 139 136 134 144 131 131 133 114 117 116 114 117 113 97 90 68 80 72 64 85 87 75 110 111 119 125 137 140 131 115 91 83 78 71 65 58 51
152 173 61 301 113 119 119 123 124 129 128 138 132 125 120 119 118 112 115 117 126 81 90 86 75 62 75 88 127 151 132 126 136 149 147 146 138 97 78 79 65 54 45
168 151 145 274 137 132 119 119 128 137 135 149 136 130 140 125 122 118 127 138 110 89 80 89 63 101 61 25 126 170 159 161 164 143 148 157 155 154 143 104 88 64 50
157 145 149 110 325 71 106 113 108 130 136 146 157 146 153 139 128 122 123 128 119 94 66 64 100 65 126 110 357 53 236 199 179 177 172 178 165 160 165 169 161 269 68
153 143 150 176 167 183 141 144 112 140 148 153 167 153 154 149 139 131 131 140 120 131 158 146 115 108 34 73 67 356 323 294 225 212 176 178 189 194 174 178 178 188 210
146 159 155 147 122 196 250 50 135 149 241 156 148 155 149 163 141 136 149 164 148 125 111 94 103 113 70 45 123 106 20 336 323 254 211 196 198 195 202 204 194 188 188
152 158 154 149 138 129 134 172 85 58 29 41 125 121 160 168 146 136 152 153 146 121 169 166 136 117 138 342 89 139 84 228 331 344 257 230 191 187 213 223 216 208 203
165 160 172 150 138 60 82 128 133 198 139 289 188 144 153 152 143 135 154 155 151 136 153 179 153 125 111 156 3 71 116 146 165 335 332 312 295 231 240 269 229 236 220
159 160 167 158 162 143 130 124 102 124 116 262 218 149 142 132 158 158 149 151 153 153 172 167 148 138 150 141 157 162 92 86 103 130 273 313 343 300 276 249 235 232 215
161 163 165 173 169 160 141 124 168 124 25 111 73 124 161 147 155 160 169 188 186 175 174 176 164 165 180 170 174 184 184 155 194 189 229 272 248 285 270 255 231 225 172